This demonstration page uses our WeatherBlox Daily Observations layout. Learn more.

Left ArrowRight Arrow

Hourly Observations for December 11, 2020

Temp ( °F °C ) Dew Point ( °F °C ) Humidity (%) Winds ( mph kmh ) Pressure ( in mb ) Visibility ( mi km ) Precip ( " mm )
12:51 am 00:51 Partly Cloudy 45 7.2 43 6.1 93 93 Calm 29.98 1015 10 16.0934 0 0
1:51 am 01:51 Cloudy 48 8.9 44 6.7 86 86 WSW 3 6 29.98 1015 10 16.0934 0 0
2:51 am 02:51 Cloudy 47 8.3 45 7.2 93 93 WSW 7 11 29.98 1015 10 16.0934 0 0
3:51 am 03:51 Partly Cloudy 46 7.8 44 6.7 93 93 Calm 30 1016 10 16.0934 0 0
4:51 am 04:51 Mostly Clear 45 7.2 43 6.1 93 93 Calm 30 1016 10 16.0934 0 0
5:51 am 05:51 Clear 41 5 41 5 100 100 ESE 5 7 30.01 1016 10 16.0934 0 0
6:51 am 06:51 Clear 40 4.4 40 4.4 100 100 E 3 6 30.03 1017 10 16.0934 0 0
7:51 am 07:51 Sunny 42 5.6 41 5 96 96 Calm 30.04 1017 10 16.0934 0 0
8:51 am 08:51 Sunny 47 8.3 44 6.7 90 90 E 6 9 30.05 1018 10 16.0934 0 0
9:51 am 09:51 Sunny 49 9.4 45 7.2 86 86 SSE 3 6 30.06 1018 10 16.0934 0 0
10:51 am 10:51 Sunny 52 11.1 46 7.8 80 80 VRB 3 6 30.05 1018 10 16.0934 0 0
11:51 am 11:51 Mostly Sunny 54 12.2 46 7.8 75 75 WSW 7 11 30.03 1017 10 16.0934 0 0
12:51 pm 12:51 Sunny 57 13.9 42 5.6 58 58 W 6 9 29.98 1015 10 16.0934 0 0
1:51 pm 13:51 Sunny 59 15 41 5 51 51 NW 16 26 29.96 1015 10 16.0934 0 0
2:51 pm 14:51 Sunny 59 15 42 5.6 54 54 NW 13 20 29.96 1014 10 16.0934 0 0
3:51 pm 15:51 Sunny 58 14.4 40 4.4 51 51 NW 15 24 29.96 1014 10 16.0934 0 0
4:51 pm 16:51 Sunny 58 14.4 39 3.9 50 50 NW 10 17 29.96 1015 10 16.0934 0 0
5:51 pm 17:51 Clear 55 12.8 38 3.3 53 53 NW 12 19 29.99 1016 10 16.0934 0 0
6:51 pm 18:51 Clear 53 11.7 37 2.8 55 55 NNW 9 15 30.01 1016 10 16.0934 0 0
7:51 pm 19:51 Clear 52 11.1 38 3.3 59 59 NNW 7 11 30.03 1017 10 16.0934 0 0
8:51 pm 20:51 Clear 50 10 40 4.4 68 68 SSW 5 7 30.03 1017 10 16.0934 0 0
9:51 pm 21:51 Clear 49 9.4 41 5 74 74 ESE 8 13 30.01 1016 10 16.0934 0 0
10:51 pm 22:51 Clear 46 7.8 41 5 83 83 NE 3 6 30.03 1017 10 16.0934 0 0
11:51 pm 23:51 Clear 45 7.2 40 4.4 83 83 NNE 7 11 30.01 1016 10 16.0934 0 0

Powered by AerisWeather